Hawthorne, CA

3:45 AM PDT on May 30, 2017 (GMT -0700)
Northrop-Hawthorne Municipal

Weather History for KHHR - April, 2013

Change the Weather History Date:

Tuesday, April 9, 2013

  Actual Average Record
Temperature  
Mean Temperature 64 °F -  
Max Temperature 73 °F 68 °F 86 °F (1968)
Min Temperature 54 °F 53 °F 43 °F (1945)
Degree Days  
Heating Degree Days 2    
Growing Degree Days 14 (Base 50)    
Moisture  
Dew Point 35 °F    
Average Humidity 36    
Maximum Humidity 69    
Minimum Humidity 15    
Precipitation  
Precipitation 0.00 in - - ()
Sea Level Pressure  
Sea Level Pressure 29.89 in    
Wind  
Wind Speed 7 mph (WNW)    
Max Wind Speed 26 mph    
Max Gust Speed 36 mph    
Visibility 10 miles    
Events      
Averages and records for this station are not official NWS values.
T = Trace of Precipitation, MM = Missing Value Source: NWS Daily Summary

Daily Weather History Graph

Daily Weather History Graph

Search for Another Location

Airport or City:

Trip Planner

Search our weather history database for the weather conditions in past years. The results will help you decide how hot, cold, wet, or windy it might be!

Date:

Astronomy

Apr. 09, 2013 Rise Set
Actual Time 6:29 AM PDT 7:20 PM PDT
Civil Twilight 6:04 AM PDT 7:45 PM PDT
Nautical Twilight 5:34 AM PDT 8:15 PM PDT
Astronomical Twilight 5:03 AM PDT 8:46 PM PDT
Moon 5:53 AM PDT (4/9) 7:00 PM PDT (4/9)
Length of Visible Light 13h 41m
Length of Day
12h 50m
Waning Crescent, 0% of the Moon is Illuminated
Apr 9
Waning Crescent
Apr 10
New
Apr 18
First Quarter
Apr 25
Full
May 2
Last Quarter

Hourly Weather History & Observations

Time (PDT) Temp. Dew Point Humidity Pressure Visibility Wind Dir Wind Speed Gust Speed Precip Events Conditions
12:53 AM 62.1 °F 36.0 °F 38% 29.83 in 10.0 mi NW 8.1 mph - N/A   Clear
1:53 AM 62.1 °F 30.0 °F 30% 29.84 in 10.0 mi NNW 5.8 mph 18.4 mph N/A   Clear
2:53 AM 57.0 °F 39.9 °F 53% 29.84 in 10.0 mi WSW 4.6 mph - N/A   Clear
3:53 AM 55.9 °F 42.1 °F 60% 29.84 in 10.0 mi Calm Calm - N/A   Clear
4:53 AM 54.0 °F 44.1 °F 69% 29.86 in 10.0 mi Calm Calm - N/A   Clear
5:53 AM 55.0 °F 39.0 °F 55% 29.88 in 10.0 mi Calm Calm - N/A   Clear
6:53 AM 57.0 °F 28.9 °F 34% 29.89 in 10.0 mi Calm Calm - N/A   Clear
7:53 AM 63.0 °F 26.1 °F 25% 29.91 in 10.0 mi Variable 5.8 mph - N/A   Clear
8:53 AM 64.9 °F 27.0 °F 24% 29.93 in 10.0 mi Variable 3.5 mph - N/A   Clear
9:53 AM 66.9 °F 26.1 °F 21% 29.94 in 10.0 mi Variable 6.9 mph - N/A   Clear
10:53 AM 71.1 °F 26.1 °F 19% 29.93 in 10.0 mi NW 9.2 mph - N/A   Clear
11:53 AM 73.0 °F 21.9 °F 15% 29.91 in 10.0 mi NW 10.4 mph 18.4 mph N/A   Clear
12:53 PM 72.0 °F 28.9 °F 20% 29.89 in 10.0 mi West 9.2 mph 19.6 mph N/A   Clear
1:53 PM 71.1 °F 30.9 °F 23% 29.88 in 10.0 mi WSW 26.5 mph 29.9 mph N/A   Clear
2:53 PM 70.0 °F 33.1 °F 26% 29.87 in 10.0 mi West 19.6 mph 29.9 mph N/A   Clear
3:53 PM 70.0 °F 32.0 °F 25% 29.86 in 10.0 mi West 17.3 mph 34.5 mph N/A   Clear
4:53 PM 69.1 °F 35.1 °F 29% 29.85 in 10.0 mi West 17.3 mph 27.6 mph N/A   Clear
5:53 PM 69.1 °F 30.9 °F 24% 29.86 in 10.0 mi West 20.7 mph 35.7 mph N/A   Clear
6:53 PM 66.0 °F 39.9 °F 38% 29.88 in 10.0 mi West 15.0 mph 23.0 mph N/A   Clear
7:53 PM 64.0 °F 41.0 °F 43% 29.90 in 10.0 mi Calm Calm - N/A   Clear
8:53 PM 62.1 °F 44.1 °F 52% 29.94 in 10.0 mi Calm Calm - N/A   Clear
9:53 PM 62.1 °F 44.1 °F 52% 29.96 in 10.0 mi Calm Calm - N/A   Clear
10:53 PM 62.1 °F 41.0 °F 46% 29.98 in 10.0 mi WNW 3.5 mph - N/A   Clear
11:53 PM 61.0 °F 44.1 °F 54% 30.00 in 10.0 mi East 5.8 mph - N/A   Clear